Terminal Aerodrome Forecast
Issued by NWS Portland, OR

Home | Current Version | Previous Version | Text Only | Print | Product List | Glossary On
Versions: 1 2 3 4 5 6 7 8 9 10 11 12 13 14 15 16 17 18 19 20 21 22 23 24 25 26 27 28 29 30 31 32
000
FTUS46 KPQR 281130
TAFAST
TAF
KAST 281130Z 2812/2912 VRB03KT P6SM SCT020
      TEMPO 2812/2816 OVC020
     FM281700 34008KT P6SM SKC
     FM282300 32017G21KT P6SM SKC
     FM290300 32013KT P6SM FEW025
      TEMPO 2908/2912 BKN022=

USA.gov is the U.S. government's official web portal to all federal, state and local government web resources and services.